Showing default

GS-1, 56372

Orbit data source: Space-Track

GS-1, 56372 is a payload satellite owned by Gravity Space (US) in GEO that was launched on Mon, 01 May 2023 UTC via an FALCON HEAVY launch vehicle from the Air Force Eastern Test Range (AFETR). Payload-class satellites include a variety of spacecraft equipped with specific instruments for various scientific and technological missions. These include communications satellites like Starlink; space stations such as the ISS; scientific satellites like the Hubble; Earth observation satellites from companies like Planet Labs, Umbra, and HawkEye 360; GPS; miniature CubeSats for education and research; and military/defense satellites.

Not visible in the next 10 days
Identifier
56372, 2023-060C
Orbit
GEO
Country
Flag of USUS
Related business
Manufacturer
Space Inventor
Mission
Operational Commercial Communications
Bus & Motor
CUBESAT 16U, Unknown motor
Mass
~22 kg wet, ~20 kg dry
Launch date (UTC)
2023-05-01 (3 years ago)
Launch vehicle
FALCON HEAVY
Launch site
Air Force Eastern Test Range (AFETR)
Object type
Payload
Rocket body
Debris
Shape & HBR
Box, 0.2 m
Radar Cross Section
0.100 m², Large (>1 m²)

Expand to show TLE details & history
Last TLE update: 20 hours ago

TLE from 20 hours ago
0 GS-1
1 56372U 23060C   25302.86078690 -.00000021  00000-0  00000-0 0  9994
2 56372   2.1297  82.5256 0003222 245.4234  89.0291  1.00302205  5228
Epoch: 2025-10-29T20:39Z
TLE epoch observation values (Epoch: 2025-10-29T20:39:31.988Z)
Latitude
-0.91492°
Longitude
68.68306°
Altitude
35,777.405 km
Speed
3.075 km/s
True Right ascension
03h 47m 58s
True Declination
0° 54' 50"
Sunlit
Object was in daylight at epoch
Visualization orbit readout
Latitude
Unknown
Longitude
Unknown
Altitude
Unknown
Speed
Unknown
Apparent Right ascension
Unknown
Apparent Declination
Unknown
Sunlit
N/A
Visualization observer readout
Local Sidereal Time
11:50:00
Azimuth
Unknown
Elevation
Unknown
Doppler factor
Unknown
Orbital elements
Apogee altitude
35,792.721 km
Perigee altitude
35,765.555 km
Semi-major axis
42,157.275 km
Eccentricity
0.00032
Inclination
2.1297°
RAAN
82.5256°
Arg. of periapsis
245.4234°
True anomaly
89.06602°
Mean anomaly
89.0291°
Eccentric anomaly
89.04756°
Mean motion
0.25075 °/min
Orbital period
1,435.71 mins
BSTAR
0
Loading maneuver chart data...
Computing Atmospheric mass density...
Loading historical data...
Loading historical data...
Loading historical data...
Loading historical data...
Loading historical data...
Loading historical data...
Loading historical data...
Other satellites on launch #60 in the year 2023 (2023-05-01 UTC)

Documentation

Showing up to 5 results
|